Time,TemperatureF,DewpointF,PressureIn,WindDirection,WindDirectionDegrees,WindSpeedMPH,WindSpeedGustMPH,Humidity,HourlyPrecipIn,Conditions,Clouds,dailyrainin,SoftwareType,DateUTC
2013-06-06 08:23:00,68.0,68.0,30.04,NE,56,0.0,0.0,100,0.00,,,0.99,,2013-06-06 12:23:00,
2013-06-06 08:33:00,68.0,68.0,30.05,NE,56,0.0,0.0,100,0.00,,,0.99,,2013-06-06 12:33:00,
2013-06-06 08:43:00,68.0,68.0,30.05,NE,56,0.0,0.0,100,0.00,,,0.99,,2013-06-06 12:43:00,
2013-06-06 08:53:00,68.0,68.0,30.05,NE,56,0.0,0.0,100,0.00,,,0.99,,2013-06-06 12:53:00,
2013-06-06 09:03:00,68.0,68.0,30.04,NE,56,0.0,0.0,100,0.00,,,0.99,,2013-06-06 13:03:00,
2013-06-06 09:13:00,68.0,68.0,30.04,NE,56,0.0,0.0,100,0.00,,,0.99,,2013-06-06 13:13:00,
2013-06-06 09:23:00,68.0,68.0,30.04,NE,56,0.0,0.0,100,0.00,,,0.99,,2013-06-06 13:23:00,
2013-06-06 09:33:00,68.0,68.0,30.04,NE,56,0.0,0.0,100,0.00,,,0.99,,2013-06-06 13:33:00,
2013-06-06 09:43:00,68.0,68.0,30.04,NE,56,0.0,0.0,100,0.00,,,0.99,,2013-06-06 13:43:00,
2013-06-06 09:52:00,69.0,69.0,30.04,NE,56,0.0,0.0,100,0.00,,,0.99,,2013-06-06 13:52:00,
2013-06-06 10:03:00,69.0,69.0,30.04,NE,56,0.0,0.0,100,0.00,,,0.99,,2013-06-06 14:03:00,
2013-06-06 10:13:00,69.0,69.0,30.04,NE,56,0.0,0.0,100,0.00,,,0.99,,2013-06-06 14:13:00,
2013-06-06 10:23:00,69.0,69.0,30.04,NE,56,0.0,0.0,100,0.00,,,1.00,,2013-06-06 14:23:00,
2013-06-06 10:33:00,69.0,69.0,30.04,NE,56,0.0,0.0,100,0.00,,,1.01,,2013-06-06 14:33:00,
2013-06-06 10:43:00,69.0,69.0,30.04,NE,56,0.0,0.0,100,0.00,,,1.01,,2013-06-06 14:43:00,
2013-06-06 10:53:00,70.0,70.0,30.04,NE,56,0.0,0.0,100,0.00,,,1.02,,2013-06-06 14:53:00,
2013-06-06 11:03:00,70.0,70.0,30.03,NE,56,0.0,0.0,100,0.00,,,1.02,,2013-06-06 15:03:00,
2013-06-06 11:13:00,70.0,70.0,30.03,NE,56,0.0,0.0,100,0.00,,,1.02,,2013-06-06 15:13:00,
2013-06-06 11:23:00,71.0,71.0,30.03,WSW,243,0.0,0.0,100,0.00,,,1.02,,2013-06-06 15:23:00,
2013-06-06 11:33:00,72.0,72.0,30.04,WSW,243,0.0,0.0,100,0.00,,,1.02,,2013-06-06 15:33:00,
2013-06-06 11:43:00,72.0,72.0,30.04,WSW,243,0.0,0.0,100,0.00,,,1.02,,2013-06-06 15:43:00,
2013-06-06 11:53:00,72.0,72.0,30.04,SSW,198,0.0,0.0,100,0.00,,,1.02,,2013-06-06 15:53:00,
2013-06-06 12:03:00,72.0,72.0,30.04,SSW,198,0.0,0.0,100,0.00,,,1.02,,2013-06-06 16:03:00,
2013-06-06 12:13:00,72.0,72.0,30.04,SSW,198,0.0,0.0,100,0.00,,,1.02,,2013-06-06 16:13:00,
2013-06-06 12:23:00,73.0,73.0,30.03,SSW,198,0.0,0.0,100,0.00,,,1.02,,2013-06-06 16:23:00,
2013-06-06 12:33:00,73.0,73.0,30.03,SSW,198,0.0,0.0,100,0.00,,,1.02,,2013-06-06 16:33:00,
2013-06-06 12:44:00,73.0,73.0,30.03,SSW,198,0.0,0.0,100,0.00,,,1.02,,2013-06-06 16:44:00,
2013-06-06 12:52:00,73.0,73.0,30.03,South,188,1.0,2.0,99,0.00,,,1.02,,2013-06-06 16:52:00,
2013-06-06 13:03:00,74.0,73.0,30.03,South,187,2.0,3.0,97,0.00,,,1.02,,2013-06-06 17:03:00,
2013-06-06 13:13:00,73.0,73.0,30.03,South,173,1.0,2.0,99,0.00,,,1.02,,2013-06-06 17:13:00,
2013-06-06 13:23:00,73.0,73.0,30.03,South,173,1.0,2.0,99,0.00,,,1.02,,2013-06-06 17:23:00,
2013-06-06 13:33:00,72.0,72.0,30.01,SSW,212,2.0,3.0,99,0.00,,,1.02,,2013-06-06 17:33:00,
2013-06-06 13:43:00,72.0,72.0,30.01,SSW,212,2.0,3.0,99,0.00,,,1.02,,2013-06-06 17:43:00,
2013-06-06 13:53:00,73.0,73.0,30.00,East,97,1.0,2.0,99,0.00,,,1.02,,2013-06-06 17:53:00,
2013-06-06 14:03:00,74.0,73.0,30.00,West,264,2.0,2.0,98,0.00,,,1.02,,2013-06-06 18:03:00,
2013-06-06 14:13:00,74.0,73.0,30.00,West,264,2.0,2.0,98,0.00,,,1.02,,2013-06-06 18:13:00,
2013-06-06 14:23:00,74.0,73.0,30.00,ESE,108,0.0,0.0,98,0.00,,,1.02,,2013-06-06 18:23:00,
2013-06-06 14:33:00,74.0,73.0,29.99,South,188,2.0,2.0,96,0.00,,,1.02,,2013-06-06 18:33:00,
2013-06-06 14:43:00,74.0,73.0,29.99,South,188,2.0,2.0,96,0.00,,,1.02,,2013-06-06 18:43:00,
2013-06-06 14:53:00,75.0,74.0,29.99,SSE,156,0.0,0.0,96,0.00,,,1.02,,2013-06-06 18:53:00,
2013-06-06 15:03:00,76.0,74.0,29.99,SSE,159,0.0,2.0,94,0.00,,,1.02,,2013-06-06 19:03:00,
2013-06-06 15:13:00,77.0,73.0,29.98,West,262,2.0,4.0,88,0.00,,,1.02,,2013-06-06 19:13:00,
2013-06-06 15:23:00,77.0,73.0,29.98,West,262,2.0,4.0,88,0.00,,,1.02,,2013-06-06 19:23:00,
2013-06-06 15:33:00,76.0,74.0,29.98,WSW,252,2.0,4.0,92,0.00,,,1.02,,2013-06-06 19:33:00,
2013-06-06 15:43:00,76.0,74.0,29.98,WSW,252,2.0,4.0,92,0.00,,,1.02,,2013-06-06 19:43:00,
2013-06-06 15:52:00,75.0,73.0,29.98,WNW,283,3.0,4.0,93,0.00,,,1.02,,2013-06-06 19:52:00,
2013-06-06 16:03:00,75.0,73.0,29.98,SE,125,2.0,3.0,95,0.00,,,1.02,,2013-06-06 20:03:00,
2013-06-06 16:13:00,75.0,73.0,29.98,SE,125,2.0,3.0,95,0.00,,,1.02,,2013-06-06 20:13:00,
2013-06-06 16:23:00,75.0,74.0,29.98,SE,127,0.0,0.0,96,0.00,,,1.02,,2013-06-06 20:23:00,
2013-06-06 16:33:00,75.0,74.0,29.97,SE,127,0.0,0.0,97,0.00,,,1.02,,2013-06-06 20:33:00,
2013-06-06 16:42:00,75.0,74.0,29.97,SE,127,0.0,0.0,97,0.00,,,1.02,,2013-06-06 20:42:00,
2013-06-06 16:53:00,75.0,74.0,29.97,SE,127,0.0,0.0,97,0.00,,,1.02,,2013-06-06 20:53:00,
2013-06-06 17:03:00,73.0,72.0,29.98,South,187,1.0,2.0,97,0.00,,,1.02,,2013-06-06 21:03:00,
2013-06-06 17:13:00,73.0,72.0,29.98,South,187,1.0,2.0,97,0.00,,,1.02,,2013-06-06 21:13:00,
2013-06-06 17:23:00,74.0,73.0,29.97,NW,322,0.0,2.0,98,0.00,,,1.02,,2013-06-06 21:23:00,
2013-06-06 17:33:00,74.0,73.0,29.96,North,1,1.0,2.0,98,0.00,,,1.02,,2013-06-06 21:33:00,
2013-06-06 17:44:00,74.0,73.0,29.96,North,1,1.0,2.0,98,0.00,,,1.02,,2013-06-06 21:44:00,
2013-06-06 17:53:00,73.0,72.0,29.96,ESE,120,1.0,2.0,98,0.00,,,1.04,,2013-06-06 21:53:00,
2013-06-06 18:03:00,73.0,73.0,29.96,South,188,1.0,2.0,100,0.00,,,1.05,,2013-06-06 22:03:00,
2013-06-06 18:13:00,73.0,73.0,29.96,South,188,1.0,2.0,100,0.00,,,1.05,,2013-06-06 22:13:00,
2013-06-06 18:23:00,73.0,73.0,29.96,SSE,162,0.0,0.0,100,0.00,,,1.05,,2013-06-06 22:23:00,
2013-06-06 18:33:00,73.0,73.0,29.96,SSE,162,0.0,0.0,100,0.00,,,1.05,,2013-06-06 22:33:00,
2013-06-06 18:43:00,73.0,73.0,29.96,SSE,162,0.0,0.0,100,0.00,,,1.05,,2013-06-06 22:43:00,
2013-06-06 18:53:00,73.0,73.0,29.95,SSE,162,0.0,0.0,100,0.00,,,1.05,,2013-06-06 22:53:00,
2013-06-06 19:02:00,73.0,73.0,29.95,SSE,162,0.0,0.0,100,0.00,,,1.05,,2013-06-06 23:02:00,
2013-06-06 19:13:00,73.0,73.0,29.95,SSE,162,0.0,0.0,100,0.00,,,1.05,,2013-06-06 23:13:00,
2013-06-06 19:22:00,73.0,73.0,29.95,SSE,162,0.0,0.0,100,0.00,,,1.05,,2013-06-06 23:22:00,
2013-06-06 19:33:00,73.0,73.0,29.95,SSE,162,0.0,0.0,100,0.00,,,1.05,,2013-06-06 23:33:00,
2013-06-06 19:43:00,73.0,73.0,29.95,SSE,162,0.0,0.0,100,0.00,,,1.05,,2013-06-06 23:43:00,
2013-06-06 19:52:00,72.0,72.0,29.96,SSE,148,0.0,0.0,100,0.00,,,0.96,,2013-06-06 23:52:00,
2013-06-06 20:02:00,72.0,72.0,29.96,SSE,148,0.0,0.0,100,0.00,,,0.57,,2013-06-07 00:02:00,
2013-06-06 20:12:00,72.0,72.0,29.96,SSE,148,0.0,0.0,100,0.00,,,0.57,,2013-06-07 00:12:00,
2013-06-06 20:22:00,71.0,71.0,29.96,SSE,148,0.0,0.0,100,0.00,,,0.49,,2013-06-07 00:22:00,
2013-06-06 20:32:00,71.0,71.0,29.96,SSE,148,0.0,0.0,100,0.00,,,0.41,,2013-06-07 00:32:00,
2013-06-06 20:42:00,71.0,71.0,29.96,SSE,148,0.0,0.0,100,0.00,,,0.41,,2013-06-07 00:42:00,
2013-06-06 20:52:00,71.0,71.0,29.96,SSE,148,0.0,0.0,100,0.00,,,0.34,,2013-06-07 00:52:00,
2013-06-06 21:03:00,71.0,71.0,29.96,SSE,148,0.0,0.0,100,0.00,,,0.30,,2013-06-07 01:03:00,
2013-06-06 21:12:00,71.0,71.0,29.96,SSE,148,0.0,0.0,100,0.00,,,0.30,,2013-06-07 01:12:00,
2013-06-06 21:22:00,71.0,71.0,29.96,SSE,148,0.0,0.0,100,0.00,,,0.29,,2013-06-07 01:22:00,
2013-06-06 21:32:00,70.0,70.0,29.96,SSE,148,0.0,0.0,100,0.00,,,0.28,,2013-06-07 01:32:00,
2013-06-06 21:42:00,70.0,70.0,29.96,SSE,148,0.0,0.0,100,0.00,,,0.28,,2013-06-07 01:42:00,
2013-06-06 21:52:00,70.0,70.0,29.96,SSE,148,0.0,0.0,100,0.00,,,0.27,,2013-06-07 01:52:00,
2013-06-06 22:02:00,70.0,70.0,29.96,SSE,148,0.0,0.0,100,0.00,,,0.27,,2013-06-07 02:02:00,
2013-06-06 22:12:00,70.0,70.0,29.96,SSE,148,0.0,0.0,100,0.00,,,0.27,,2013-06-07 02:12:00,
2013-06-06 22:22:00,70.0,70.0,29.96,SSE,148,0.0,0.0,100,0.00,,,0.27,,2013-06-07 02:22:00,
2013-06-06 22:32:00,69.0,69.0,29.97,SSE,148,0.0,0.0,100,0.00,,,0.27,,2013-06-07 02:32:00,
2013-06-06 22:42:00,69.0,69.0,29.97,SSE,148,0.0,0.0,100,0.00,,,0.27,,2013-06-07 02:42:00,
2013-06-06 22:52:00,69.0,69.0,29.97,SSE,148,0.0,0.0,100,0.00,,,0.27,,2013-06-07 02:52:00,
2013-06-06 23:02:00,69.0,69.0,29.97,SSE,148,0.0,0.0,100,0.00,,,0.27,,2013-06-07 03:02:00,
2013-06-06 23:12:00,69.0,69.0,29.97,SSE,148,0.0,0.0,100,0.00,,,0.27,,2013-06-07 03:12:00,
2013-06-06 23:22:00,69.0,69.0,29.97,SSE,148,0.0,0.0,100,0.00,,,0.27,,2013-06-07 03:22:00,
2013-06-06 23:33:00,69.0,69.0,29.97,SSE,148,0.0,0.0,100,0.00,,,0.27,,2013-06-07 03:33:00,
2013-06-06 23:43:00,69.0,69.0,29.97,SSE,148,0.0,0.0,100,0.00,,,0.27,,2013-06-07 03:43:00,
2013-06-06 23:53:00,69.0,69.0,29.96,SE,142,0.0,0.0,100,0.00,,,0.27,,2013-06-07 03:53:00,